DW5212 Weather Reports


time (UTC)temp
C
wind
direction
speed
KPH
gust
KPH
rain 1hr
cm
rain 24hr
cm
rain mn
cm
humidity
%
barometer
mb
20260906062005 23 232 0.0 0.0 0.00 0.00 0.00 91 1012.5
20260906061503 23 232 0.0 0.0 0.00 0.00 0.00 91 1012.3
20260906061003 23 232 0.0 0.0 0.00 0.00 0.00 91 1012.3
20260906060503 23 232 0.0 0.0 0.00 0.00 0.00 90 1012.3
20260906055503 23 232 0.0 0.0 0.00 0.00 0.00 90 1012.4
20260906054005 23 232 0.0 1.6 0.00 0.00 0.00 90 1012.3
20260906053503 23 232 0.0 1.6 0.00 0.00 0.00 90 1012.3
20260906053005 23 232 0.0 3.2 0.00 0.00 0.00 90 1012.3
20260906052503 23 232 0.0 3.2 0.00 0.00 0.00 90 1012.5
20260906052004 23 232 0.0 0.0 0.00 0.00 0.00 90 1012.5
20260906051505 24 232 0.0 0.0 0.00 0.00 0.00 90 1012.3
20260906051005 24 232 0.0 0.0 0.00 0.00 0.00 90 1012.5
20260906050504 24 232 0.0 0.0 0.00 0.00 0.00 89 1012.3
20260906050011 24 232 0.0 0.0 0.00 0.00 0.00 89 1012.3
20260906045506 24 232 0.0 0.0 0.00 0.00 0.00 90 1012.2
20260906045006 24 232 0.0 0.0 0.00 0.00 0.00 90 1012.1
20260906044506 24 232 0.0 0.0 0.00 0.00 0.00 89 1012.2
20260906044007 24 232 0.0 0.0 0.00 0.00 0.00 89 1012.1
20260906043505 24 232 0.0 0.0 0.00 0.00 0.00 89 1012.1
20260906043007 24 232 0.0 1.6 0.00 0.00 0.00 89 1012.1
20260906042506 24 232 0.0 1.6 0.00 0.00 0.00 89 1012.1
20260906042007 24 232 0.0 1.6 0.00 0.00 0.00 89 1011.9
20260906041506 24 232 0.0 1.6 0.00 0.00 0.00 89 1011.9
20260906041006 24 232 0.0 0.0 0.00 0.00 0.00 89 1011.7
20260906040506 24 232 0.0 0.0 0.00 0.00 0.00 89 1011.7
20260906040008 24 232 0.0 0.0 0.00 0.00 0.00 89 1011.6
20260906035504 24 232 0.0 0.0 0.00 0.00 0.00 89 1011.7
20260906035005 24 232 0.0 0.0 0.00 0.00 0.00 89 1011.8
20260906034504 24 232 0.0 0.0 0.00 0.00 0.00 89 1011.7
20260906034005 24 232 0.0 0.0 0.00 0.00 0.00 89 1011.5
20260906033504 24 232 0.0 0.0 0.00 0.00 0.00 89 1011.5
20260906033004 24 232 0.0 0.0 0.00 0.00 0.00 89 1011.5
20260906032504 24 232 0.0 0.0 0.00 0.00 0.00 89 1011.4
20260906032004 25 232 0.0 0.0 0.00 0.00 0.00 89 1011.4
20260906031504 25 232 0.0 0.0 0.00 0.00 0.00 89 1011.3
20260906025005 25 232 0.0 0.0 0.00 0.00 0.00 87 1011.5
20260906024504 25 232 0.0 0.0 0.00 0.00 0.00 87 1011.5
20260906024004 25 232 0.0 0.0 0.00 0.00 0.00 87 1011.7
20260906023503 25 232 0.0 0.0 0.00 0.00 0.00 87 1011.8
20260906023005 25 232 0.0 0.0 0.00 0.00 0.00 86 1012.0
20260906022004 25 232 0.0 0.0 0.00 0.00 0.00 86 1012.2
20260906021504 25 232 0.0 0.0 0.00 0.00 0.00 86 1012.5
20260906020503 26 232 0.0 0.0 0.00 0.00 0.00 86 1012.5
20260906020007 26 232 0.0 0.0 0.00 0.00 0.00 86 1012.6
20260906015505 26 232 0.0 0.0 0.00 0.00 0.00 85 1012.5
20260906015006 26 232 0.0 0.0 0.00 0.00 0.00 85 1012.5
20260906014506 26 232 0.0 0.0 0.00 0.00 0.00 85 1012.7
20260906014006 26 232 0.0 0.0 0.00 0.00 0.00 85 1012.8
20260906013505 26 232 0.0 3.2 0.00 0.00 0.00 84 1012.9
20260906013007 26 232 0.0 3.2 0.00 0.00 0.00 84 1013.0
20260906012504 26 232 0.0 1.6 0.00 0.00 0.00 84 1013.3
20260906012006 26 232 1.6 6.4 0.00 0.00 0.00 83 1013.2
20260906011506 26 232 1.6 6.4 0.00 0.00 0.00 83 1013.2
20260906011006 26 221 1.6 4.8 0.00 0.00 0.00 83 1013.3
20260906010505 26 264 1.6 4.8 0.00 0.00 0.00 83 1013.1
20260906010006 26 240 0.0 4.8 0.00 0.00 0.00 82 1013.2
20260906005004 26 188 1.6 4.8 0.00 0.00 0.00 81 1013.2
20260906004004 27 211 0.0 3.2 0.00 0.00 0.00 80 1013.2
20260906003503 27 202 0.0 0.0 0.00 0.00 0.00 80 1013.2
20260906003007 27 202 0.0 3.2 0.00 0.00 0.00 79 1012.8
20260906002504 27 213 0.0 3.2 0.00 0.00 0.00 80 1012.7
20260906001505 27 251 0.0 0.0 0.00 0.00 0.00 80 1012.6
20260906001004 27 252 0.0 1.6 0.00 0.00 0.00 80 1012.6
20260906000007 27 169 1.6 4.8 0.00 0.00 0.00 80 1012.6
20260905235503 27 230 1.6 4.8 0.00 0.00 0.00 80 1012.6
20260905234504 27 251 0.0 4.8 0.00 0.00 0.00 80 1012.7
20260905234004 27 255 1.6 4.8 0.00 0.00 0.00 80 1012.6
20260905233503 27 221 1.6 3.2 0.00 0.00 0.00 81 1012.6
20260905233004 27 220 1.6 6.4 0.00 0.00 0.00 81 1012.6
20260905232504 27 208 1.6 6.4 0.00 0.00 0.00 81 1012.6
20260905232004 27 217 1.6 9.7 0.00 0.00 0.00 80 1012.6
20260905231505 27 216 1.6 8.0 0.00 0.00 0.00 80 1012.4
20260905231005 27 182 1.6 6.4 0.00 0.00 0.00 80 1012.2
20260905230503 28 223 3.2 6.4 0.00 0.00 0.00 80 1012.1
20260905230008 28 217 3.2 6.4 0.00 0.00 0.00 79 1012.0
20260905225503 28 221 3.2 8.0 0.00 0.00 0.00 79 1012.0
20260905225004 28 210 3.2 8.0 0.00 0.00 0.00 78 1012.1
20260905224504 28 216 4.8 12.9 0.00 0.00 0.00 77 1012.1
20260905224007 28 157 3.2 12.9 0.00 0.00 0.00 76 1012.1
20260905223503 28 241 3.2 16.1 0.00 0.00 0.00 75 1012.2
20260905222503 28 192 4.8 14.5 0.00 0.00 0.00 73 1012.0
20260905222005 28 284 4.8 17.7 0.00 0.00 0.00 72 1012.0
20260905221004 30 229 6.4 19.3 0.00 0.00 0.00 69 1011.9
20260905220503 30 236 4.8 17.7 0.00 0.00 0.00 68 1011.8
20260905220007 31 228 6.4 17.7 0.00 0.00 0.00 66 1011.9
20260905215503 31 171 8.0 17.7 0.00 0.00 0.00 64 1011.8
20260905215004 32 236 6.4 19.3 0.00 0.00 0.00 61 1011.7
20260905214004 34 38 3.2 12.9 0.00 0.00 0.00 57 1011.3
20260905213503 34 263 3.2 12.9 0.00 0.00 0.00 56 1011.1
20260905213005 34 132 3.2 6.4 0.00 0.00 0.00 55 1011.0
20260905212504 34 77 3.2 9.7 0.00 0.00 0.00 54 1010.9
20260905212004 34 213 3.2 9.7 0.00 0.00 0.00 55 1010.9
20260905210006 33 115 1.6 11.3 0.00 0.00 0.00 58 1011.0
20260905205504 33 24 0.0 4.8 0.00 0.00 0.00 58 1011.0
20260905205004 33 43 1.6 3.2 0.00 0.00 0.00 57 1011.0
20260905204505 34 74 3.2 12.9 0.00 0.00 0.00 56 1011.1
20260905204004 35 52 4.8 12.9 0.00 0.00 0.00 54 1011.1
20260905203503 35 172 3.2 11.3 0.00 0.00 0.00 55 1011.0
20260905203004 34 348 1.6 6.4 0.00 0.00 0.00 55 1011.1
20260905202506 34 28 1.6 6.4 0.00 0.00 0.00 56 1011.1
20260905202005 34 177 1.6 4.8 0.00 0.00 0.00 56 1011.2
20260905201505 35 38 1.6 6.4 0.00 0.00 0.00 55 1011.3
20260905200505 34 77 1.6 4.8 0.00 0.00 0.00 56 1011.3
20260905195504 34 60 3.2 8.0 0.00 0.00 0.00 58 1011.6
20260905195004 33 78 3.2 8.0 0.00 0.00 0.00 58 1011.5
20260905194505 33 72 1.6 8.0 0.00 0.00 0.00 58 1011.8
20260905194004 33 60 1.6 3.2 0.00 0.00 0.00 58 1011.8
20260905193505 34 60 0.0 4.8 0.00 0.00 0.00 57 1011.9
20260905192503 35 105 1.6 8.0 0.00 0.00 0.00 55 1012.0
20260905192004 35 90 1.6 4.8 0.00 0.00 0.00 56 1012.0
20260905191005 35 149 1.6 8.0 0.00 0.00 0.00 56 1012.2
20260905190006 35 173 1.6 9.7 0.00 0.00 0.00 56 1012.1
20260905185504 35 39 1.6 9.7 0.00 0.00 0.00 56 1012.3
20260905185006 35 31 3.2 6.4 0.00 0.00 0.00 58 1012.3
20260905184004 35 169 1.6 14.5 0.00 0.00 0.00 59 1012.6
20260905183505 35 159 1.6 11.3 0.00 0.00 0.00 60 1012.6
20260905183005 35 81 1.6 4.8 0.00 0.00 0.00 58 1012.6
20260905182504 35 10 3.2 6.4 0.00 0.00 0.00 59 1012.7
20260905181506 34 13 3.2 6.4 0.00 0.00 0.00 59 1012.8
20260905181005 33 87 3.2 6.4 0.00 0.00 0.00 60 1012.8
20260905180505 33 117 1.6 4.8 0.00 0.00 0.00 61 1013.0
20260905180006 33 71 1.6 4.8 0.00 0.00 0.00 61 1013.0
20260905175505 33 80 1.6 4.8 0.00 0.00 0.00 60 1013.1
20260905175004 34 55 1.6 8.0 0.00 0.00 0.00 60 1013.1
20260905174505 33 319 1.6 8.0 0.00 0.00 0.00 61 1013.2
20260905174003 33 87 1.6 6.4 0.00 0.00 0.00 61 1013.1
20260905173504 33 32 1.6 4.8 0.00 0.00 0.00 61 1013.3
20260905173006 33 61 0.0 1.6 0.00 0.00 0.00 62 1013.5
20260905172505 33 32 1.6 4.8 0.00 0.00 0.00 63 1013.4
20260905172004 33 13 1.6 4.8 0.00 0.00 0.00 63 1013.5
20260905171005 33 185 1.6 4.8 0.00 0.00 0.00 65 1013.7
20260905170504 33 229 1.6 4.8 0.00 0.00 0.00 68 1013.8
20260905170006 32 275 1.6 4.8 0.00 0.00 0.00 67 1014.0
20260905165004 32 185 0.0 4.8 0.00 0.00 0.00 70 1014.0
20260905164505 32 28 1.6 4.8 0.00 0.00 0.00 70 1014.0
20260905164004 32 108 1.6 4.8 0.00 0.00 0.00 71 1014.1
20260905163503 31 36 0.0 4.8 0.00 0.00 0.00 70 1014.1
20260905163004 32 355 0.0 1.6 0.00 0.00 0.00 70 1014.1
20260905162004 32 355 0.0 3.2 0.00 0.00 0.00 68 1014.2
20260905161004 32 95 0.0 0.0 0.00 0.00 0.00 69 1014.2
20260905160504 32 130 0.0 0.0 0.00 0.00 0.00 70 1014.2
20260905155504 32 329 0.0 0.0 0.00 0.00 0.00 71 1014.2
20260905155006 31 24 0.0 3.2 0.00 0.00 0.00 73 1014.3
20260905154506 31 63 1.6 4.8 0.00 0.00 0.00 74 1014.3
20260905154006 31 63 0.0 4.8 0.00 0.00 0.00 74 1014.3
20260905153005 31 51 0.0 0.0 0.00 0.00 0.00 75 1014.2
20260905152505 31 167 0.0 0.0 0.00 0.00 0.00 75 1014.2
20260905152005 30 167 0.0 0.0 0.00 0.00 0.00 76 1014.3
20260905151505 30 215 0.0 0.0 0.00 0.00 0.00 76 1014.3
20260905151004 30 215 0.0 0.0 0.00 0.00 0.00 77 1014.3
20260905150503 30 215 0.0 0.0 0.00 0.00 0.00 77 1014.4
20260905150006 30 215 0.0 0.0 0.00 0.00 0.00 78 1014.4
20260905145503 30 212 0.0 0.0 0.00 0.00 0.00 79 1014.3
20260905145004 29 110 0.0 0.0 0.00 0.00 0.00 79 1014.3
20260905144503 28 111 0.0 1.6 0.00 0.00 0.00 81 1014.4
20260905144004 28 128 0.0 3.2 0.00 0.00 0.00 81 1014.4
20260905143504 28 128 0.0 3.2 0.00 0.00 0.00 82 1014.3
20260905143005 27 128 1.6 3.2 0.00 0.00 0.00 84 1014.4
20260905142005 27 127 0.0 6.4 0.00 0.00 0.00 86 1014.3
20260905141004 26 129 0.0 4.8 0.00 0.00 0.00 88 1014.3
20260905140503 26 145 1.6 4.8 0.00 0.00 0.00 89 1014.3
20260905140006 26 185 1.6 4.8 0.00 0.00 0.00 89 1014.4
20260905135503 25 133 0.0 1.6 0.00 0.00 0.00 90 1014.4
20260905135004 25 133 0.0 1.6 0.00 0.00 0.00 91 1014.4
20260905134503 25 133 0.0 3.2 0.00 0.00 0.00 91 1014.5
20260905134003 25 132 0.0 1.6 0.00 0.00 0.00 91 1014.6
20260905133004 25 110 0.0 0.0 0.00 0.00 0.00 92 1014.6
20260905132003 24 110 0.0 0.0 0.00 0.00 0.00 92 1014.5
20260905131503 24 110 0.0 0.0 0.00 0.00 0.00 93 1014.5
20260905130502 24 110 0.0 0.0 0.00 0.00 0.00 93 1014.4
20260905130004 23 110 0.0 0.0 0.00 0.00 0.00 93 1014.5
20260905125504 23 110 0.0 0.0 0.00 0.00 0.00 93 1014.5
20260905125004 23 110 0.0 0.0 0.00 0.00 0.00 93 1014.4
20260905124004 23 110 0.0 0.0 0.00 0.00 0.00 93 1014.4
20260905123503 23 110 0.0 0.0 0.00 0.00 0.00 93 1014.2
20260905123006 23 110 0.0 0.0 0.00 0.00 0.00 93 1014.2
20260905122004 23 110 0.0 0.0 0.00 0.00 0.00 93 1014.1
20260905121503 23 111 0.0 0.0 0.00 0.00 0.00 93 1014.1
20260905121005 23 111 0.0 0.0 0.00 0.00 0.00 93 1014.1
20260905120504 23 110 0.0 0.0 0.00 0.00 0.00 93 1014.1
20260905120005 23 111 0.0 0.0 0.00 0.00 0.00 93 1013.9
20260905115503 23 111 0.0 0.0 0.00 0.00 0.00 93 1013.8
20260905115003 23 110 0.0 0.0 0.00 0.00 0.00 93 1013.8
20260905114503 23 110 0.0 0.0 0.00 0.00 0.00 93 1013.8
20260905114004 23 110 0.0 0.0 0.00 0.00 0.00 93 1013.8
20260905113503 23 110 0.0 0.0 0.00 0.00 0.00 92 1013.8
20260905113006 23 110 0.0 0.0 0.00 0.00 0.00 92 1013.6
20260905112003 23 110 0.0 0.0 0.00 0.00 0.00 92 1013.5
20260905111503 23 110 0.0 0.0 0.00 0.00 0.00 92 1013.6
20260905111004 23 110 0.0 0.0 0.00 0.00 0.00 92 1013.4
20260905110502 23 110 0.0 0.0 0.00 0.00 0.00 92 1013.2
20260905110008 23 110 0.0 0.0 0.00 0.00 0.00 92 1013.2
20260905105504 23 110 0.0 0.0 0.00 0.00 0.00 92 1013.1
20260905105003 23 111 0.0 0.0 0.00 0.00 0.00 92 1013.0
20260905104503 23 110 0.0 0.0 0.00 0.00 0.00 92 1013.0
20260905104003 23 110 0.0 0.0 0.00 0.00 0.00 92 1013.1
20260905103502 23 110 0.0 0.0 0.00 0.00 0.00 92 1013.2
20260905103004 23 110 0.0 0.0 0.00 0.00 0.00 92 1013.2
20260905102502 23 110 0.0 0.0 0.00 0.00 0.00 92 1013.2
20260905102004 23 110 0.0 0.0 0.00 0.00 0.00 92 1013.3
20260905101505 23 110 0.0 0.0 0.00 0.00 0.00 92 1013.3
20260905101003 23 110 0.0 0.0 0.00 0.00 0.00 92 1013.2
20260905100503 23 110 0.0 0.0 0.00 0.00 0.00 92 1013.2
20260905100004 23 110 0.0 0.0 0.00 0.00 0.00 91 1013.1
20260905095503 23 110 0.0 0.0 0.00 0.00 0.00 91 1013.3
20260905095004 23 110 0.0 0.0 0.00 0.00 0.00 91 1013.2
20260905094503 23 110 0.0 0.0 0.00 0.00 0.00 91 1013.2
20260905094002 23 110 0.0 0.0 0.00 0.00 0.00 91 1013.2
20260905093503 23 110 0.0 0.0 0.00 0.00 0.00 91 1013.3
20260905093004 23 110 0.0 0.0 0.00 0.00 0.00 91 1013.2
20260905092503 23 110 0.0 0.0 0.00 0.00 0.00 91 1013.2
20260905092003 23 110 0.0 0.0 0.00 0.00 0.00 91 1013.2
20260905091503 23 110 0.0 0.0 0.00 0.00 0.00 91 1013.2
20260905091004 23 110 0.0 0.0 0.00 0.00 0.00 91 1013.1
20260905090502 23 110 0.0 0.0 0.00 0.00 0.00 91 1013.1
20260905090004 23 110 0.0 0.0 0.00 0.00 0.00 91 1013.2
20260905085503 23 110 0.0 0.0 0.00 0.00 0.00 91 1013.1
20260905085004 23 111 0.0 0.0 0.00 0.00 0.00 91 1013.1
20260905084503 23 110 0.0 0.0 0.00 0.00 0.00 91 1013.2
20260905084003 23 110 0.0 0.0 0.00 0.00 0.00 91 1013.2
20260905083503 23 110 0.0 0.0 0.00 0.00 0.00 91 1013.2
20260905083004 23 110 0.0 0.0 0.00 0.00 0.00 91 1013.2
20260905082502 23 110 0.0 0.0 0.00 0.00 0.00 91 1013.2
20260905082003 23 110 0.0 0.0 0.00 0.00 0.00 91 1013.1
20260905081503 23 110 0.0 0.0 0.00 0.00 0.00 91 1013.0
20260905081003 23 110 0.0 0.0 0.00 0.00 0.00 91 1013.0
20260905080502 23 110 0.0 0.0 0.00 0.00 0.00 91 1013.2
20260905080004 23 110 0.0 0.0 0.00 0.00 0.00 91 1013.2
20260905075502 23 110 0.0 0.0 0.00 0.00 0.00 91 1013.1
20260905075003 23 111 0.0 0.0 0.00 0.00 0.00 91 1013.2
20260905074504 23 111 0.0 0.0 0.00 0.00 0.00 91 1013.2
20260905074003 23 110 0.0 0.0 0.00 0.00 0.00 91 1013.2
20260905073503 23 110 0.0 0.0 0.00 0.00 0.00 90 1013.1
20260905072004 23 110 0.0 0.0 0.00 0.00 0.00 90 1013.2
20260905071503 23 110 0.0 0.0 0.00 0.00 0.00 90 1013.2
20260905071003 23 110 0.0 0.0 0.00 0.00 0.00 90 1013.1
20260905070006 23 110 0.0 0.0 0.00 0.00 0.00 90 1013.1
20260905065502 23 110 0.0 0.0 0.00 0.00 0.00 90 1013.2
20260905065003 23 110 0.0 0.0 0.00 0.00 0.00 90 1013.3
20260905064503 23 110 0.0 0.0 0.00 0.00 0.00 89 1013.3
20260905064003 23 110 0.0 0.0 0.00 0.00 0.00 89 1013.5
20260905063503 23 110 0.0 0.0 0.00 0.00 0.00 89 1013.4
20260905062503 23 110 0.0 0.0 0.00 0.00 0.00 89 1013.4